STARLINK-34312, 64711

Orbit data source: Space-Track

STARLINK-34312, 64711 is a payload satellite owned by SpaceX/Seattle (US) in LEO that was launched on Sat, 28 Jun 2025 UTC via an FALCON 9 launch vehicle from the Air Force Western Test Range (AFWTR). Payload-class satellites include a variety of spacecraft equipped with specific instruments for various scientific and technological missions. These include communications satellites like Starlink; space stations such as the ISS; scientific satellites like the Hubble; Earth observation satellites from companies like Planet Labs, Umbra, and HawkEye 360; GPS; miniature CubeSats for education and research; and military/defense satellites.

Loading next visibility...
Identifier
64711, 2025-142R
Orbit
LEO
Country
Flag of USUS
Related business
Manufacturer
SpaceX/Seattle
Mission
Operational Commercial Communications
Bus & Motor
STARLINK V2MO, Unknown motor
Mass
575 kg wet, ~530 kg dry
Launch date (UTC)
2025-06-28 (1 year ago)
Launch vehicle
FALCON 9
Launch site
Air Force Western Test Range (AFWTR)
Object type
Payload
Rocket body
Debris
Shape & HBR
Box + 1 Pan, 17.7 m
Radar Cross Section
41.120 m², Large (>1 m²)

Expand to show TLE details & history
Last TLE update: 12 hours ago

TLE from 12 hours ago
0 STARLINK-34312
1 64711U 25142R   26264.22332495  .00013007  00000-0  45589-3 0  9998
2 64711  69.9996 178.8974 0006217 263.2262  96.8205 15.29584626 69005
Epoch: 2026-09-21T05:21Z
TLE epoch observation values (Epoch: 2026-09-21T05:21:35.275Z)
Latitude
-0.00011°
Longitude
98.39414°
Altitude
480.019 km
Speed
7.626 km/s
True Right ascension
11h 55m 35s
True Declination
0° 00' 00"
Sunlit
Object was in daylight at epoch
Visualization orbit readout
Latitude
Unknown
Longitude
Unknown
Altitude
Unknown
Speed
Unknown
Apparent Right ascension
Unknown
Apparent Declination
Unknown
Sunlit
N/A
Visualization observer readout
Local Sidereal Time
09:57:37
Azimuth
Unknown
Elevation
Unknown
Doppler factor
Unknown
Orbital elements
Apogee altitude
479.233 km
Perigee altitude
470.712 km
Semi-major axis
6,853.11 km
Eccentricity
0.00062
Inclination
69.9996°
RAAN
178.8974°
Arg. of periapsis
263.2262°
True anomaly
96.89123°
Mean anomaly
96.8205°
Eccentric anomaly
96.85587°
Mean motion
3.82571 °/min
Orbital period
94.1 mins
BSTAR
0.00045589
Loading maneuver chart data...
Computing Atmospheric mass density...
Loading historical data...
Loading historical data...
Loading historical data...
Loading historical data...
Loading historical data...
Loading historical data...
Loading historical data...

Documentation

Showing up to 5 results
|